Temp_Advection
nan nan nan nan nan nan nan nan nan nan nan nan nan nan nan nan nan nan nan nan nan nan
nan 0 0 0 0 0 0 0 0 0 0 0 0 1 1 0 0 -0 0 1 0 nan
nan 0 0 1 1 1 1 1 0 -0 0 1 0 -0 0 1 0 -0 0 0 0 nan
nan 0 1 1 0 1 1 0 0 0 -0 -0 1 0 0 1 0 0 0 0 0 nan
nan 0 0 0 0 0 0 0 0 0 -0 -0 0 0 0 1 0 0 1 0 0 nan
nan 0 0 0 0 0 0 0 0 0 -0 -0 0 0 0 0 1 0 0 0 0 nan
nan 0 0 0 0 0 0 0 0 0 0 0 0 0 0 0 0 1 0 -0 0 nan
nan 0 0 -0 0 0 0 0 0 0 0 0 0 0 0 -0 -0 0 0 -0 0 nan
nan 0 0 0 0 0 0 0 0 0 0 0 0 0 1 1 0 -1 -0 -0 -0 nan
nan 0 0 0 0 0 0 0 0 0 0 0 1 1 1 1 1 0 -0 -0 -0 nan
nan 0 0 0 0 0 0 0 0 0 0 1 1 1 1 0 0 0 0 0 -0 nan
nan 0 0 0 0 0 0 0 -0 -0 0 1 1 1 1 -0 0 0 0 0 0 nan
nan 0 0 0 0 0 0 0 0 -0 0 0 1 1 0 -0 0 0 0 0 -0 nan
nan nan nan nan nan nan nan nan nan nan nan nan nan nan nan nan nan nan nan nan nan nan
Wind_Speed
24 25 26 25 23 23 26 22 19 24 25 25 23 27 24 24 23 23 23 24 24 24
24 26 26 25 26 27 26 26 25 24 23 23 26 23 23 24 24 25 25 25 25 25
19 21 23 26 26 24 22 21 20 22 23 25 24 23 27 25 25 26 25 25 25 24
18 19 20 20 20 21 20 20 18 21 25 25 24 24 24 25 26 27 26 25 24 23
17 17 18 18 19 19 20 21 20 17 19 20 21 22 23 25 26 26 25 24 24 22
15 16 16 17 17 18 18 17 16 16 17 19 20 21 23 24 24 24 24 24 23 21
14 15 17 17 17 16 16 15 15 16 17 18 19 20 21 23 24 24 24 23 21 20
14 15 16 16 16 16 15 15 15 16 16 17 18 19 20 22 23 22 23 21 20 18
16 15 16 16 16 16 15 15 15 15 17 17 18 19 19 20 22 23 18 16 15 12
17 17 17 17 18 17 16 16 15 16 17 18 18 19 19 18 18 19 14 12 12 12
18 19 19 19 19 18 18 17 17 17 18 19 18 19 17 15 16 16 11 11 12 12
18 19 20 20 20 19 20 19 19 20 20 19 17 16 15 14 15 15 13 13 12 13
19 17 19 19 19 20 20 20 21 21 21 19 18 15 13 16 15 15 14 14 14 12
19 18 18 18 19 19 20 21 23 22 20 19 18 16 15 17 16 15 13 12 12 11
Wind_Direction
249 250 250 247 246 241 247 249 243 250 259 258 262 264 268 275 279 280 283 282 282 280
254 248 245 245 247 247 246 245 240 242 247 255 261 268 278 283 284 285 284 283 282 281
255 256 253 248 244 245 244 237 240 249 272 270 274 281 281 283 285 284 284 283 282 281
263 259 253 246 243 240 241 241 241 260 270 266 274 280 283 285 284 285 284 283 281 279
260 256 250 245 243 243 242 249 262 258 266 274 279 283 285 284 285 286 285 283 279 278
255 252 247 245 244 244 247 252 259 265 272 277 279 281 283 285 287 286 283 279 277 277
252 253 252 248 244 242 245 251 259 266 272 277 281 285 288 290 289 283 277 274 274 274
251 250 245 241 239 242 247 256 264 272 278 283 287 289 292 297 299 289 276 274 274 272
253 246 239 239 242 247 254 261 271 278 283 284 286 290 295 301 307 305 286 274 278 267
249 244 243 245 247 252 258 264 272 281 286 285 287 289 293 298 303 302 276 268 264 267
247 248 249 250 253 256 261 266 273 282 287 282 281 284 286 294 299 297 270 253 255 259
252 253 254 254 256 260 262 267 274 281 288 282 280 282 287 290 294 287 262 250 249 253
251 254 256 256 255 258 261 267 272 281 289 283 280 284 280 281 281 277 258 249 247 252
244 252 257 256 255 258 264 269 278 285 287 283 280 285 273 272 273 270 255 246 245 246
Height
1500 1502 1503 1505 1505 1508 1512 1514 1516 1519 1520 1520 1520 1519 1519 1519 1519 1516 1515 1515 1515 1514
1495 1497 1498 1500 1503 1505 1506 1508 1510 1512 1514 1514 1513 1513 1514 1515 1514 1512 1510 1509 1509 1508
1492 1493 1494 1495 1497 1500 1502 1504 1506 1507 1508 1509 1509 1509 1509 1509 1509 1506 1505 1504 1503 1502
1488 1490 1491 1492 1493 1495 1498 1501 1503 1502 1503 1503 1504 1503 1502 1502 1502 1501 1500 1499 1497 1498
1485 1486 1488 1489 1490 1493 1495 1496 1497 1497 1499 1499 1499 1498 1497 1497 1497 1495 1494 1494 1492 1492
1480 1483 1485 1486 1487 1489 1491 1493 1494 1494 1495 1494 1494 1494 1493 1492 1491 1490 1488 1488 1487 1486
1477 1479 1481 1482 1484 1486 1488 1489 1490 1490 1489 1489 1489 1489 1488 1486 1484 1484 1484 1483 1480 1481
1475 1475 1477 1479 1480 1482 1484 1485 1485 1485 1485 1485 1484 1484 1483 1481 1479 1477 1476 1475 1475 1476
1472 1472 1473 1475 1477 1479 1480 1481 1481 1481 1481 1480 1480 1479 1477 1476 1473 1471 1470 1470 1471 1472
1468 1469 1470 1472 1473 1475 1476 1476 1477 1477 1476 1476 1475 1474 1473 1471 1470 1468 1467 1467 1468 1468
1463 1465 1466 1467 1469 1471 1472 1472 1472 1472 1471 1471 1470 1469 1468 1467 1467 1465 1464 1465 1465 1466
1459 1461 1462 1463 1464 1466 1467 1468 1467 1467 1466 1465 1465 1464 1463 1463 1462 1462 1461 1462 1462 1462
1456 1457 1458 1459 1459 1461 1462 1462 1461 1461 1460 1459 1459 1459 1459 1459 1459 1458 1458 1458 1459 1459
1450 1453 1454 1454 1454 1456 1456 1456 1455 1455 1454 1454 1454 1454 1455 1454 1454 1454 1454 1455 1456 1456